Location: ???????
(55.3754°N, 39.3545°E)
Time: 07:37:56
(UTC+00:00)

RESURS DK-1 - Pass Details

Date: 14 April 2026
Orbit: 524 x 530 km, 69.9° (Epoch: 9 May)

Event Time Altitude Azimuth Distance (km) Brightness Sun altitude
Exits shadow 20:17:45 22° 259° (W) 1,187 4.0 -23.6°
Maximum altitude 20:19:49 39° 316° (NW) 799 3.5 -23.7°
Drops below altitude 10° 20:23:34 10° 27° (NNE) 1,782 5.5 -23.8°
Sets 20:25:52 0° 35° (NE) 2,676 6.4 -23.9°
